| time (UTC) | temp F | wind direction | speed MPH | gust MPH | rain 1hr in | rain 24hr in | rain mn in | humidity % | barometer mb |
| 20260502202831 | 52 | 102 | 1.0 | 1.0 | 0.00 | 0.12 | 0.12 | 39 | 1040.4 |
| 20260502201827 | 52 | 69 | 1.0 | 1.0 | 0.00 | 0.12 | 0.12 | 38 | 1040.5 |
| 20260502200825 | 52 | 118 | 1.0 | 2.0 | 0.00 | 0.12 | 0.12 | 37 | 1040.9 |
| 20260502195825 | 52 | 155 | 2.0 | 2.0 | 0.00 | 0.12 | 0.12 | 40 | 1040.7 |
| 20260502194824 | 53 | 257 | 5.0 | 6.0 | 0.00 | 0.12 | 0.12 | 39 | 1041.0 |
| 20260502193822 | 53 | 148 | 2.0 | 3.0 | 0.00 | 0.12 | 0.12 | 37 | 1040.9 |
| 20260502192820 | 52 | 143 | 3.0 | 3.0 | 0.00 | 0.12 | 0.12 | 39 | 1041.5 |
| 20260502191815 | 51 | 123 | 1.0 | 2.0 | 0.00 | 0.12 | 0.12 | 39 | 1041.5 |
| 20260502190810 | 52 | 216 | 4.0 | 5.0 | 0.00 | 0.12 | 0.12 | 39 | 1041.6 |
| 20260502185808 | 53 | 105 | 0.0 | 1.0 | 0.00 | 0.12 | 0.12 | 38 | 1041.8 |
| 20260502184808 | 52 | 141 | 1.0 | 2.0 | 0.00 | 0.12 | 0.12 | 38 | 1041.7 |
| 20260502183806 | 53 | 47 | 3.0 | 3.0 | 0.00 | 0.12 | 0.12 | 40 | 1041.7 |
| 20260502182803 | 53 | 125 | 3.0 | 3.0 | 0.00 | 0.12 | 0.12 | 37 | 1041.8 |
| 20260502181801 | 53 | 104 | 3.0 | 3.0 | 0.00 | 0.12 | 0.12 | 37 | 1041.9 |
| 20260502180758 | 52 | 96 | 1.0 | 1.0 | 0.00 | 0.12 | 0.12 | 38 | 1041.9 |
| 20260502163743 | 51 | 138 | 1.0 | 2.0 | 0.00 | 0.12 | 0.12 | 41 | 1042.2 |
| 20260502162743 | 51 | 335 | 3.0 | 3.0 | 0.00 | 0.12 | 0.12 | 42 | 1042.1 |
| 20260502161743 | 51 | 97 | 4.0 | 6.0 | 0.00 | 0.12 | 0.12 | 43 | 1042.2 |
| 20260502160743 | 50 | 185 | 3.0 | 3.0 | 0.00 | 0.12 | 0.12 | 44 | 1042.3 |
| 20260502151727 | 50 | 90 | 1.0 | 2.0 | 0.00 | 0.12 | 0.12 | 43 | 1042.3 |
| 20260502150721 | 50 | 279 | 5.0 | 6.0 | 0.00 | 0.12 | 0.12 | 41 | 1042.3 |
| 20260502130704 | 47 | 115 | 1.0 | 2.0 | 0.00 | 0.12 | 0.12 | 67 | 1043.2 |
| 20260502123653 | 43 | 32 | 2.0 | 2.0 | 0.00 | 0.12 | 0.12 | 74 | 1043.4 |
| 20260502122652 | 45 | 113 | 1.0 | 1.0 | 0.00 | 0.12 | 0.12 | 81 | 1043.2 |
| 20260502121647 | 44 | 106 | 1.0 | 1.0 | 0.00 | 0.12 | 0.12 | 81 | 1043.2 |
| 20260502120647 | 42 | 110 | 1.0 | 2.0 | 0.00 | 0.12 | 0.12 | 87 | 1042.9 |
| 20260502115641 | 41 | 100 | 0.0 | 0.0 | 0.00 | 0.12 | 0.12 | 95 | 1043.1 |
| 20260502114639 | 41 | 81 | 1.0 | 1.0 | 0.00 | 0.12 | 0.12 | 95 | 1042.9 |
| 20260502113634 | 41 | 103 | 0.0 | 0.0 | 0.00 | 0.12 | 0.12 | 95 | 1043.2 |
| 20260502112630 | 40 | 90 | 0.0 | 0.0 | 0.00 | 0.12 | 0.12 | 95 | 1043.2 |
| 20260502111630 | 39 | 91 | 0.0 | 0.0 | 0.00 | 0.12 | 0.12 | 95 | 1043.4 |
| 20260502110626 | 39 | 77 | 0.0 | 0.0 | 0.00 | 0.12 | 0.12 | 95 | 1043.4 |
| 20260502105620 | 39 | 91 | 0.0 | 0.0 | 0.00 | 0.12 | 0.12 | 95 | 1043.1 |
| 20260502104620 | 39 | 100 | 1.0 | 1.0 | 0.00 | 0.12 | 0.12 | 95 | 1043.1 |
| 20260502103615 | 39 | 98 | 0.0 | 0.0 | 0.00 | 0.12 | 0.12 | 95 | 1042.8 |
| 20260502102615 | 39 | 100 | 1.0 | 1.0 | 0.00 | 0.12 | 0.12 | 95 | 1042.6 |
| 20260502101616 | 39 | 86 | 1.0 | 1.0 | 0.00 | 0.12 | 0.12 | 95 | 1042.4 |
| 20260502100612 | 39 | 85 | 1.0 | 1.0 | 0.00 | 0.12 | 0.12 | 95 | 1042.5 |
| 20260502090558 | 40 | 83 | 1.0 | 1.0 | 0.00 | 0.12 | 0.12 | 95 | 1041.9 |
| 20260502071533 | 45 | 101 | 0.0 | 0.0 | 0.00 | 0.03 | 0.03 | 95 | 1040.5 |
| 20260502070529 | 45 | 101 | 0.0 | 0.0 | 0.00 | 0.03 | 0.03 | 95 | 1040.4 |
| 20260502065525 | 45 | 101 | 0.0 | 0.0 | 0.00 | 0.03 | 0.03 | 95 | 1040.6 |
| 20260502064521 | 45 | 102 | 0.0 | 0.0 | 0.00 | 0.03 | 0.03 | 95 | 1040.5 |
| 20260502063521 | 45 | 100 | 0.0 | 0.0 | 0.00 | 0.03 | 0.03 | 95 | 1040.6 |
| 20260502062521 | 45 | 100 | 0.0 | 0.0 | 0.00 | 0.03 | 0.03 | 95 | 1040.7 |
| 20260502061517 | 45 | 100 | 0.0 | 0.0 | 0.00 | 0.03 | 0.03 | 95 | 1040.7 |
| 20260502060515 | 45 | 100 | 0.0 | 0.0 | 0.00 | 0.03 | 0.03 | 95 | 1041.0 |
| 20260502055516 | 45 | 100 | 0.0 | 0.0 | 0.00 | 0.03 | 0.03 | 95 | 1040.8 |
| 20260502054513 | 45 | 100 | 0.0 | 0.0 | 0.00 | 0.03 | 0.03 | 95 | 1041.3 |
| 20260502053512 | 45 | 100 | 0.0 | 0.0 | 0.00 | 0.03 | 0.03 | 95 | 1041.3 |
| 20260502052508 | 45 | 100 | 0.0 | 0.0 | 0.00 | 0.03 | 0.03 | 95 | 1041.2 |
| 20260502051504 | 45 | 100 | 0.0 | 0.0 | 0.00 | 0.03 | 0.03 | 95 | 1041.0 |
| 20260502050503 | 45 | 100 | 0.0 | 0.0 | 0.00 | 0.03 | 0.03 | 95 | 1041.3 |
| 20260502045503 | 45 | 103 | 0.0 | 0.0 | 0.05 | 0.03 | 0.03 | 95 | 1041.5 |
| 20260502044502 | 45 | 103 | 0.0 | 0.0 | 0.00 | 0.02 | 0.02 | 95 | 1041.2 |
| 20260502043456 | 45 | 104 | 0.0 | 0.0 | 0.07 | 0.02 | 0.02 | 95 | 1041.1 |
| 20260502042453 | 45 | 104 | 0.0 | 0.0 | 0.00 | 0.01 | 0.01 | 95 | 1041.3 |
| 20260502041448 | 45 | 104 | 0.0 | 0.0 | 0.00 | 0.01 | 0.01 | 95 | 1041.2 |
| 20260502040447 | 45 | 104 | 0.0 | 0.0 | 0.05 | 0.01 | 0.01 | 95 | 1041.6 |
| 20260502035445 | 45 | 104 | 0.0 | 0.0 | 0.07 | 0.10 | 0.10 | 95 | 1041.3 |
| 20260502034442 | 46 | 104 | 0.0 | 0.0 | 0.00 | 0.09 | 0.09 | 95 | 1041.1 |
| 20260502033443 | 46 | 103 | 0.0 | 0.0 | 0.12 | 0.09 | 0.09 | 95 | 1041.4 |
| 20260502032441 | 46 | 104 | 0.0 | 0.0 | 0.12 | 0.08 | 0.08 | 95 | 1041.2 |
| 20260502031437 | 46 | 104 | 0.0 | 0.0 | 0.00 | 0.06 | 0.06 | 95 | 1041.4 |
| 20260502030433 | 46 | 100 | 0.0 | 0.0 | 0.00 | 0.06 | 0.06 | 95 | 1041.2 |
| 20260502025433 | 46 | 100 | 0.0 | 0.0 | 0.00 | 0.06 | 0.06 | 95 | 1041.3 |
| 20260502024429 | 46 | 100 | 0.0 | 0.0 | 0.05 | 0.06 | 0.06 | 95 | 1041.3 |
| 20260502023424 | 46 | 99 | 1.0 | 1.0 | 0.00 | 0.05 | 0.05 | 95 | 1041.2 |
| 20260502022424 | 46 | 82 | 1.0 | 1.0 | 0.07 | 0.05 | 0.05 | 95 | 1041.6 |
| 20260502021423 | 46 | 89 | 0.0 | 0.0 | 0.00 | 0.04 | 0.04 | 95 | 1041.4 |
| 20260502020419 | 46 | 86 | 1.0 | 1.0 | 0.00 | 0.04 | 0.04 | 95 | 1041.5 |
| 20260502015419 | 46 | 91 | 0.0 | 0.0 | 0.00 | 0.04 | 0.04 | 95 | 1041.3 |
| 20260502014418 | 46 | 91 | 0.0 | 0.0 | 0.00 | 0.04 | 0.04 | 95 | 1041.5 |
| 20260502013416 | 46 | 93 | 0.0 | 0.0 | 0.05 | 0.04 | 0.04 | 95 | 1041.1 |
| 20260502012411 | 47 | 92 | 0.0 | 0.0 | 0.00 | 0.03 | 0.03 | 95 | 1041.0 |
| 20260502011410 | 46 | 92 | 0.0 | 0.0 | 0.00 | 0.03 | 0.03 | 94 | 1041.1 |
| 20260502010409 | 46 | 92 | 0.0 | 0.0 | 0.00 | 0.03 | 0.03 | 94 | 1041.0 |
| 20260502005404 | 46 | 92 | 0.0 | 0.0 | 0.00 | 0.03 | 0.03 | 94 | 1041.2 |
| 20260502004403 | 46 | 103 | 0.0 | 0.0 | 0.00 | 0.03 | 0.03 | 93 | 1041.1 |
| 20260502003357 | 47 | 104 | 0.0 | 0.0 | 0.00 | 0.03 | 0.03 | 93 | 1040.7 |
| 20260502002357 | 47 | 85 | 0.0 | 0.0 | 0.00 | 0.03 | 0.03 | 92 | 1041.0 |
| 20260502001357 | 47 | 86 | 0.0 | 0.0 | 0.07 | 0.03 | 0.03 | 92 | 1040.8 |
| 20260502000354 | 47 | 85 | 0.0 | 0.0 | 0.00 | 0.02 | 0.02 | 91 | 1040.9 |
| 20260501235350 | 48 | 85 | 0.0 | 0.0 | 0.05 | 0.02 | 0.02 | 89 | 1040.7 |
| 20260501234349 | 48 | 85 | 0.0 | 1.0 | 0.07 | 0.01 | 0.01 | 86 | 1040.7 |
| 20260501233344 | 49 | 87 | 2.0 | 2.0 | 0.00 | 0.00 | 0.00 | 83 | 1040.9 |
| 20260501232343 | 49 | 352 | 3.0 | 3.0 | 0.00 | 0.00 | 0.00 | 81 | 1041.1 |
| 20260501231338 | 50 | 264 | 4.0 | 5.0 | 0.00 | 0.00 | 0.00 | 77 | 1040.7 |
| 20260501230335 | 51 | 280 | 6.0 | 7.0 | 0.00 | 0.00 | 0.00 | 73 | 1040.7 |
| 20260501225335 | 52 | 224 | 5.0 | 6.0 | 0.00 | 0.00 | 0.00 | 69 | 1040.3 |
| 20260501224334 | 53 | 86 | 0.0 | 0.0 | 0.00 | 0.00 | 0.00 | 67 | 1040.3 |
| 20260501223332 | 53 | 76 | 2.0 | 3.0 | 0.00 | 0.00 | 0.00 | 63 | 1039.9 |
| 20260501222332 | 54 | 73 | 1.0 | 2.0 | 0.00 | 0.00 | 0.00 | 61 | 1040.2 |
| 20260501221331 | 54 | 74 | 1.0 | 2.0 | 0.00 | 0.00 | 0.00 | 60 | 1040.1 |
| 20260501220327 | 54 | 51 | 2.0 | 2.0 | 0.00 | 0.00 | 0.00 | 61 | 1040.0 |
| 20260501215325 | 54 | 54 | 1.0 | 2.0 | 0.00 | 0.00 | 0.00 | 62 | 1039.7 |
| 20260501214322 | 54 | 108 | 1.0 | 1.0 | 0.00 | 0.00 | 0.00 | 59 | 1040.0 |
| 20260501213320 | 54 | 147 | 3.0 | 5.0 | 0.00 | 0.00 | 0.00 | 57 | 1039.7 |
| 20260501212319 | 55 | 101 | 3.0 | 3.0 | 0.00 | 0.00 | 0.00 | 56 | 1039.7 |
| 20260501211319 | 57 | 94 | 1.0 | 1.0 | 0.00 | 0.00 | 0.00 | 52 | 1039.4 |
| 20260501210319 | 56 | 138 | 2.0 | 2.0 | 0.00 | 0.00 | 0.00 | 50 | 1039.3 |
| 20260501205319 | 57 | 7 | 3.0 | 5.0 | 0.00 | 0.00 | 0.00 | 50 | 1039.1 |
| 20260501204318 | 57 | 96 | 1.0 | 1.0 | 0.00 | 0.00 | 0.00 | 50 | 1039.3 |